When you browse on this site, cookies collect data to enhance your experience and personalize the content and advertising you see.
Visit our Privacy Policy to learn more. By continuing to use the site, you agree to this use of cookies and data.
EN

Hourly Weather Alida

Today, 13 August, Thursday

Time Temperature Precipitation Wind Pressure Humidity
00:00 +20°C° 2.3 mm 6 mps 707 mmHg 91%
01:00 +20°C° 2.3 mm 6 mps 707 mmHg 92%
02:00 +20°C° 2.3 mm 5 mps 706 mmHg 93%
03:00 +20°C° 1.2 mm 4 mps 706 mmHg 94%
04:00 +20°C° 1.2 mm 3 mps 707 mmHg 95%
05:00 +19°C° 0 mm 2 mps 707 mmHg 92%
06:00 +19°C° 0.5 mm 2 mps 707 mmHg 92%
07:00 +20°C° 0.5 mm 1 mps 707 mmHg 92%
08:00 +18°C° 0.5 mm 0 mps 707 mmHg 93%
09:00 +20°C° 0 mm 0 mps 707 mmHg 83%
10:00 +23°C° 0 mm 0 mps 708 mmHg 73%
11:00 +25°C° 0 mm 0 mps 708 mmHg 64%
12:00 +28°C° 0 mm 2 mps 709 mmHg 56%
13:00 +28°C° 0 mm 4 mps 709 mmHg 48%
14:00 +29°C° 0 mm 6 mps 709 mmHg 40%
15:00 +28°C° 0 mm 5 mps 709 mmHg 43%
16:00 +27°C° 0 mm 5 mps 709 mmHg 45%
17:00 +26°C° 0 mm 5 mps 709 mmHg 47%
18:00 +23°C° 0 mm 4 mps 709 mmHg 57%
19:00 +21°C° 0 mm 4 mps 709 mmHg 66%
20:00 +19°C° 0 mm 4 mps 709 mmHg 76%
21:00 +18°C° 0 mm 3 mps 709 mmHg 81%
22:00 +17°C° 0 mm 3 mps 709 mmHg 86%
23:00 +16°C° 0 mm 3 mps 709 mmHg 91%

Tomorrow, 14 August, Friday

Time Temperature Precipitation Wind Pressure Humidity
00:00 +16°C° 0 mm 3 mps 709 mmHg 90%
01:00 +16°C° 0 mm 3 mps 710 mmHg 90%
02:00 +16°C° 0 mm 3 mps 710 mmHg 90%
03:00 +14°C° 0.2 mm 3 mps 710 mmHg 87%
04:00 +15°C° 0.2 mm 2 mps 710 mmHg 84%
05:00 +15°C° 0.2 mm 2 mps 710 mmHg 81%
06:00 +15°C° 0.1 mm 2 mps 710 mmHg 79%
07:00 +15°C° 0.1 mm 2 mps 710 mmHg 77%
08:00 +15°C° 0.1 mm 1 mps 710 mmHg 76%
09:00 +16°C° 0 mm 2 mps 711 mmHg 69%
10:00 +17°C° 0 mm 2 mps 711 mmHg 63%
11:00 +19°C° 0 mm 2 mps 711 mmHg 57%
12:00 +19°C° 0 mm 2 mps 711 mmHg 54%
13:00 +20°C° 0 mm 2 mps 711 mmHg 52%
14:00 +21°C° 0 mm 3 mps 711 mmHg 49%
15:00 +21°C° 0 mm 3 mps 711 mmHg 52%
16:00 +20°C° 0 mm 3 mps 710 mmHg 55%
17:00 +19°C° 0 mm 4 mps 710 mmHg 58%
18:00 +18°C° 0 mm 4 mps 710 mmHg 63%
19:00 +17°C° 0 mm 4 mps 710 mmHg 68%
20:00 +14°C° 0 mm 3 mps 710 mmHg 73%
21:00 +14°C° 0 mm 3 mps 710 mmHg 75%
22:00 +15°C° 0 mm 2 mps 710 mmHg 77%
23:00 +14°C° 0 mm 2 mps 710 mmHg 79%

Day after tomorrow, 15 August, Saturday

Time Temperature Precipitation Wind Pressure Humidity
00:00 +14°C° 0 mm 2 mps 710 mmHg 78%
01:00 +14°C° 0 mm 2 mps 710 mmHg 77%
02:00 +14°C° 0 mm 2 mps 710 mmHg 76%
03:00 +14°C° 0 mm 2 mps 710 mmHg 75%
04:00 +14°C° 0 mm 2 mps 709 mmHg 74%
05:00 +14°C° 0 mm 2 mps 709 mmHg 73%
06:00 +16°C° 0 mm 2 mps 710 mmHg 66%
07:00 +18°C° 0 mm 3 mps 710 mmHg 60%
08:00 +20°C° 0 mm 3 mps 710 mmHg 53%
09:00 +21°C° 0 mm 4 mps 711 mmHg 50%
10:00 +22°C° 0 mm 6 mps 711 mmHg 46%
11:00 +23°C° 0 mm 7 mps 711 mmHg 42%
12:00 +23°C° 0 mm 7 mps 712 mmHg 41%
13:00 +24°C° 0 mm 7 mps 712 mmHg 39%
14:00 +24°C° 0 mm 7 mps 712 mmHg 38%
15:00 +24°C° 0 mm 7 mps 712 mmHg 39%
16:00 +23°C° 0 mm 6 mps 712 mmHg 40%
17:00 +22°C° 0 mm 6 mps 712 mmHg 41%
18:00 +20°C° 0 mm 5 mps 713 mmHg 47%
19:00 +19°C° 0 mm 4 mps 713 mmHg 52%
20:00 +17°C° 0 mm 3 mps 713 mmHg 58%
21:00 +16°C° 0 mm 3 mps 713 mmHg 60%
22:00 +14°C° 0 mm 3 mps 714 mmHg 61%
23:00 +15°C° 0 mm 2 mps 714 mmHg 63%

16 August, Sunday

Time Temperature Precipitation Wind Pressure Humidity
00:00 +14°C° 0 mm 2 mps 714 mmHg 64%
01:00 +14°C° 0 mm 2 mps 714 mmHg 65%
02:00 +14°C° 0 mm 2 mps 714 mmHg 66%
03:00 +13°C° 0 mm 2 mps 715 mmHg 68%
04:00 +13°C° 0 mm 2 mps 715 mmHg 70%
05:00 +13°C° 0 mm 2 mps 715 mmHg 72%
06:00 +15°C° 0 mm 2 mps 716 mmHg 67%
07:00 +17°C° 0 mm 2 mps 716 mmHg 61%
08:00 +19°C° 0 mm 2 mps 717 mmHg 56%
09:00 +20°C° 0 mm 3 mps 717 mmHg 51%
10:00 +21°C° 0 mm 3 mps 717 mmHg 46%
11:00 +23°C° 0 mm 4 mps 717 mmHg 41%
12:00 +23°C° 0 mm 4 mps 717 mmHg 40%
13:00 +25°C° 0 mm 4 mps 717 mmHg 38%
14:00 +25°C° 0 mm 4 mps 717 mmHg 36%
15:00 +25°C° 0 mm 4 mps 717 mmHg 38%
16:00 +23°C° 0 mm 4 mps 716 mmHg 39%
17:00 +23°C° 0 mm 4 mps 716 mmHg 41%
18:00 +21°C° 0 mm 3 mps 716 mmHg 48%
19:00 +19°C° 0 mm 3 mps 717 mmHg 55%
20:00 +17°C° 0 mm 2 mps 717 mmHg 62%
21:00 +16°C° 0 mm 2 mps 717 mmHg 63%
22:00 +15°C° 0 mm 2 mps 717 mmHg 65%
23:00 +14°C° 0 mm 1 mps 717 mmHg 67%

17 August, Monday

Time Temperature Precipitation Wind Pressure Humidity
00:00 +14°C° 0 mm 1 mps 717 mmHg 68%
01:00 +13°C° 0 mm 1 mps 717 mmHg 68%
02:00 +13°C° 0 mm 1 mps 717 mmHg 68%
03:00 +13°C° 0 mm 1 mps 717 mmHg 69%
04:00 +12°C° 0 mm 0 mps 717 mmHg 69%
05:00 +11°C° 0 mm 0 mps 717 mmHg 70%
06:00 +14°C° 0 mm 1 mps 717 mmHg 63%
07:00 +18°C° 0 mm 1 mps 717 mmHg 57%
08:00 +20°C° 0 mm 1 mps 718 mmHg 51%
09:00 +21°C° 0 mm 1 mps 717 mmHg 47%
10:00 +23°C° 0 mm 2 mps 717 mmHg 44%
11:00 +25°C° 0 mm 2 mps 717 mmHg 40%
12:00 +26°C° 0 mm 2 mps 717 mmHg 38%
13:00 +27°C° 0 mm 2 mps 716 mmHg 35%
14:00 +28°C° 0 mm 2 mps 716 mmHg 33%
15:00 +28°C° 0 mm 2 mps 716 mmHg 34%
16:00 +28°C° 0 mm 2 mps 715 mmHg 34%
17:00 +28°C° 0 mm 2 mps 715 mmHg 35%
18:00 +26°C° 0 mm 2 mps 715 mmHg 40%
19:00 +24°C° 0 mm 3 mps 714 mmHg 45%
20:00 +21°C° 0 mm 4 mps 714 mmHg 51%
21:00 +20°C° 0 mm 4 mps 713 mmHg 52%
22:00 +19°C° 0 mm 3 mps 713 mmHg 53%
23:00 +19°C° 0 mm 3 mps 712 mmHg 54%

18 August, Tuesday

Time Temperature Precipitation Wind Pressure Humidity
00:00 +19°C° 0 mm 3 mps 712 mmHg 55%
01:00 +18°C° 0 mm 3 mps 712 mmHg 55%
02:00 +18°C° 0 mm 2 mps 712 mmHg 56%
03:00 +18°C° 0 mm 2 mps 711 mmHg 57%
04:00 +18°C° 0 mm 2 mps 711 mmHg 58%
05:00 +17°C° 0 mm 2 mps 711 mmHg 59%
06:00 +20°C° 0 mm 2 mps 711 mmHg 54%
07:00 +23°C° 0 mm 2 mps 712 mmHg 48%
08:00 +25°C° 0 mm 3 mps 712 mmHg 42%
09:00 +26°C° 0 mm 3 mps 712 mmHg 41%
10:00 +28°C° 0 mm 3 mps 712 mmHg 39%
11:00 +29°C° 0 mm 4 mps 712 mmHg 38%
12:00 +30°C° 0 mm 4 mps 712 mmHg 36%
13:00 +30°C° 0 mm 4 mps 712 mmHg 35%
14:00 +32°C° 0 mm 4 mps 712 mmHg 34%
15:00 +30°C° 0 mm 4 mps 711 mmHg 37%
16:00 +29°C° 0 mm 3 mps 711 mmHg 40%
17:00 +28°C° 0 mm 3 mps 711 mmHg 43%
18:00 +26°C° 0 mm 3 mps 711 mmHg 51%
19:00 +23°C° 0 mm 4 mps 711 mmHg 59%
20:00 +21°C° 0 mm 4 mps 711 mmHg 68%
21:00 +20°C° 0 mm 4 mps 711 mmHg 71%
22:00 +19°C° 0 mm 4 mps 711 mmHg 74%
23:00 +17°C° 0 mm 3 mps 711 mmHg 77%
Show more